Regional Weather Roundup
Issued by NWS

Home | Current Version | Previous Version | Graphics & Text | Print | Product List | Glossary On
Versions: 1 2 3 4 5 6 7 8 9 10 11 12 13 14 15 16 17 18 19 20 21 22 23 24 25 26 27 28 29 30 31 32 33 34 35 36 37 38 39 40 41 42 43 44 45 46 47 48 49 50
000
ASUS43 KDMX 182001
RWRIA

WEATHER ROUNDUP FOR IOWA
NATIONAL WEATHER SERVICE DES MOINES IA
200 PM CST THU JAN 18 2018

NOTE: "FAIR" INDICATES FEW OR NO CLOUDS BELOW 12,000 FEET WITH NO
SIGNIFICANT WEATHER AND/OR OBSTRUCTIONS TO VISIBILITY.

* - THESE STATIONS ARE NOT NWS STATIONS...THUS NOT UNDER NWS
QUALITY CONTROL.  THEY ALSO DO NOT REPORT WEATHER SUCH
AS PRECIPITATION OR FOG.

IAZ001>003-012>014-020>022-031>034-043>046-182100-
   NORTHWEST IOWA

CITY           SKY/WX    TMP DP  RH WIND       PRES   REMARKS
CARROLL *      CLOUDY    36  23  60 SW21G28   29.92F WCI  24
CHEROKEE *     CLOUDY    38  23  53 SW13      29.87F WCI  31
DENISON *      CLOUDY    36  19  51 SW12G18   29.94F WCI  27
LE MARS *      CLOUDY    41  23  48 S13G20    29.85F
ORANGE CITY *  CLOUDY    39  27  60 SW12      29.85F WCI  32
SHELDON *      CLOUDY    39  27  60 SW10      29.82F WCI  32
SIOUX CITY     CLOUDY    43  26  51 S12       29.89F
SPENCER        CLOUDY    41  25  53 SW15      29.84F
STORM LAKE *   CLOUDY    39  23  52 SW18      29.87F WCI  30
$$

IAZ055>058-069>071-079>083-090>094-182100-
   SOUTHWEST IOWA

CITY           SKY/WX    TMP DP  RH WIND       PRES   REMARKS
ATLANTIC *     CLOUDY    32  19  59 S14G20    29.98F WCI  22
AUDUBON *      CLOUDY    34  21  60 S13G20    29.96F WCI  25
CLARINDA *     SUNNY     32  19  59 S15G21    30.04F WCI  22
COUNCIL BLFS * CLOUDY    32  19  59 SW17      29.97F WCI  21
CRESTON *      SUNNY     32  19  59 SW15G24   30.01F WCI  22
HARLAN  *      CLOUDY    32  21  64 S15       29.99F WCI  22
LAMONI         SUNNY     34  18  52 SW17      30.03F WCI  23
RED OAK *      CLOUDY    34  19  55 S18       30.00F WCI  23
SHENANDOAH *   CLOUDY    34  19  55 S15       30.03F WCI  24
$$

IAZ047>049-059>061-072>074-084-182100-
   CENTRAL IOWA

CITY           SKY/WX    TMP DP  RH WIND       PRES   REMARKS
AMES           MOSUNNY   34  24  67 SW13      29.97F WCI  25
ANKENY *       SUNNY     36  18  48 SW9G15    29.99F WCI  29
BOONE *        SUNNY     36  21  55 SW15      29.94F WCI  26
CHARITON *     SUNNY     34  19  55 SW16      30.01F WCI  23
DES MOINES     MOSUNNY   36  20  52 SW15      29.99F WCI  27
GRINNELL*      SUNNY     32  19  59 SW15      30.01F WCI  22
KNOXVILLE *    SUNNY     36  16  44 SW12      29.99F WCI  27
MARSHALLTOWN   SUNNY     35  21  56 SW13      29.96F WCI  26
NEWTON *       SUNNY     34  19  55 SW15      29.99F WCI  24
PELLA *        SUNNY     36  18  49 SW12G17   30.02F WCI  28
PERRY *          N/A     36  20  53 SW12      29.96F WCI  27
$$

IAZ004>006-015-016-023>025-035-036-182100-
   NORTH CENTRAL IOWA

CITY           SKY/WX    TMP DP  RH WIND       PRES   REMARKS
ALGONA *       CLOUDY    36 N/A N/A S15       29.86F WCI  26
CLARION *      SUNNY     34  27  75 SW18      29.90F WCI  23
ESTHERVILLE    CLOUDY    39  28  64 SW14      29.82F WCI  31
FORT DODGE *   SUNNY     35  22  58 SW15      29.90F WCI  25
MASON CITY     SUNNY     33  21  61 SW16G28   29.88F WCI  23
FOREST CITY *    N/A     34  25  69 SW14      29.87F WCI  24
WEBSTER CITY * SUNNY     36  23  60 S14G23    29.89F WCI  27
IOWA FALLS *     N/A     35  24  65 SW16G22   29.94F HAZE    WCI  25
$$

IAZ007>011-017>019-026>030-037>042-050>054-066-182100-
   NORTHEAST IOWA

CITY           SKY/WX    TMP DP  RH WIND       PRES   REMARKS
CEDAR RAPIDS     N/A     34  20  56 SW13      29.99F WCI  25
CHARLES CITY *   N/A     34  25  69 SW12G20   29.89F WCI  25
CLINTON *        N/A     33  20  58 SW17      30.02F WCI  22
DECORAH *        N/A     34  21  60 SW10G17   29.87F WCI  26
DUBUQUE          N/A     30  18  60 SW17      29.94F WCI  18
MONTICELLO *     N/A     36  19  51 SW14      29.97F WCI  27
OELWEIN *        N/A     32  25  74 SW17      29.93F WCI  21
WATERLOO         N/A     34  21  59 SW16      29.94F WCI  24
$$

IAZ064-065-067-068-078-182100-
   EAST CENTRAL IOWA

CITY           SKY/WX    TMP DP  RH WIND       PRES   REMARKS
DAVENPORT        N/A     34  19  54 SW12      30.05F WCI  25
IOWA CITY        N/A     34  18  52 SW13      30.04F WCI  25
MT. PLEASANT * SUNNY     34  19  55 SW18      30.06F WCI  23
MUSCATINE *      N/A     34  19  55 SW13      30.06F WCI  25
QUAD CITIES      N/A     34  19  54 SW15      30.04F WCI  24
$$

IAZ062-063-075>077-085>089-095>099-182100-
   SOUTHEAST IOWA

CITY           SKY/WX    TMP DP  RH WIND       PRES   REMARKS
BURLINGTON     SUNNY     34  19  54 SW14      30.07F WCI  25
FAIRFIELD *    SUNNY     34  18  51 SW17      30.03F WCI  23
FORT MADISON * SUNNY     36  19  51 SW12      30.08F WCI  27
KEOKUK *       SUNNY     36  18  48 MISG      30.08F
OSKALOOSA *      N/A     34  21  58 SW20      30.02F WCI  22
OTTUMWA        SUNNY     36  19  50 SW15      30.02F WCI  27
WASHINGTON *   SUNNY     34  19  55 SW14G20   30.04F WCI  24
$$

ABBREVIATIONS USED IN REMARKS
   TC - TEMPERATURES IN CELSIUS
  WCI - WIND CHILL INDEX
   HX - HEAT INDEX
  VSB - VISIBILITY
$$





USA.gov is the U.S. government's official web portal to all federal, state and local government web resources and services.